User: anonymous   Login
Location: Écuvilly
(49.6505°N, 2.9206°E)
Time: 15:33:28
(UTC+00:00)
Language:

COSMO-SKYMED 1 - Orbit

View from above orbital plane
View from above orbital plane
View from above satellite
View from above satellite

Ground track
Ground track

The orbit is defined by the following mean orbital elements,

1 31598U          26021.25280373 +.00000000 +00000-0 +10225-2 0 00002
2 31598  97.8836 211.9218 0000965  88.2834 271.8497 14.96113161    07
Epoch (UTC): 21 January 2026 06:04:02
Eccentricity: 0.0000965
inclination: 97.8836°
perigee height: 578 km
apogee height: 580 km
right ascension of ascending node: 211.9218°
argument of perigee: 88.2834°
revolutions per day: 14.96113161
mean anomaly at epoch: 271.8497°

The dashed part of the orbit path shows where the satellite is in the earth's shadow,  

DLR